VIASAT-2 (42740 NORAD) Tracking and Keplerian Element Data

This shows tracking and keplerian element data for the satellite.

Feedback or suggestion? Click here.




ElementValue
Catalog42740
NameVIASAT-2
Epoch Orbit2429
Epoch Day13.14177101
Epoch Year2024
RAAN275.5904
Inclination0.0313
Eccentricity0.0001023
Argument of Perigee112.9455
Mean Anonmoly64.6863
Mean Motion1.00269805
Decay Rate-2.57E-06
L11 42740U 17029A 24013.14177101 -.00000257 00000+0 00000+0 0 9991
L22 42740 0.0313 275.5904 0001023 112.9455 64.6863 1.00269805 24292



Live tracking and technical data element details for VIASAT-2 (NORAD 42740). VIASAT-2 can be tracked NOW for your location showing map with azimuth and elevation plus other details from your city location.







IsCatalogInMostPopularTable: catalog: 42740, numindb: 791
Update: records affected: 1



GetName: 42740 VIASAT-2

Hit Count: updated at: Fri, 19 Apr 2024 11:57:12 GMT